User: anonymous   Login
Location: Wildcat Hills Observatory
(41.6350°N, 103.6812°W)
Time: 19:20:26
(UTC-06:00)
Language:

Cosmos 1634 Rocket - Orbit

View from above orbital plane
View from above orbital plane
View from above satellite
View from above satellite

Ground track
Ground track

The orbit data is extracted from the following two-line orbital elements,

1 15598U 85022B   17149.51597267 -.00000008 +00000-0 -24260-4 0  9997
2 15598 082.9357 120.9877 0022537 158.0363 341.4647 13.76563024617654
Epoch (UTC): 29 May 2017 12:23:00
Eccentricity: 0.0022537
inclination: 82.9357°
perigee height: 959 km
apogee height: 992 km
right ascension of ascending node: 120.9877°
argument of perigee: 158.0363°
revolutions per day: 13.76563024
mean anomaly at epoch: 341.4647°
orbit number at epoch: 61765

The dashed part of the orbit path shows where the satellite is in the earth's shadow,  

DLR